Location: Makanda
(37.6176°N, 89.2090°W)
Time: 20:45:18
(UTC+00:00)

Cosmos 1975 - Pass Details

Date: 23 September 2019
Orbit: 543 x 561 km, 82.5° (Epoch: 13 October)

Event Time Altitude Azimuth Distance (km) Brightness Sun altitude
Rises 11:14:06 0° 346° (NNW) 2,746 6.3 -7.0°
Reaches altitude 10° 11:16:19 10° 341° (NNW) 1,849 5.4 -6.6°
Maximum altitude 11:20:15 49° 267° (W) 723 3.0 -5.8°
Drops below altitude 10° 11:24:11 10° 192° (SSW) 1,842 5.3 -5.0°
Sets 11:26:23 0° 187° (S) 2,733 6.3 -4.6°
